Weather History for Fort Leonard Wood, MO

Change the Weather History Date:

Friday, May 10, 2013

  Actual Average Record
Temperature  
Mean Temperature 62 °F -  
Max Temperature 68 °F 73 °F 87 °F (2005)
Min Temperature 53 °F 55 °F 42 °F (1997)
Degree Days  
Heating Degree Days 4    
Growing Degree Days 12 (Base 50)    
Moisture  
Dew Point 57 °F    
Average Humidity 92    
Maximum Humidity 100    
Minimum Humidity 62    
Precipitation  
Precipitation 0.01 in - - ()
Sea Level Pressure  
Sea Level Pressure 29.95 in    
Wind  
Wind Speed 6 mph (WNW)    
Max Wind Speed 12 mph    
Max Gust Speed -    
Visibility 10 miles    
Events Rain    
Averages and records for this station are not official NWS values.
T = Trace of Precipitation, MM = Missing Value Source: NWS Daily Summary

Daily Weather History Graph

Daily Weather History Graph

Search for Another Location

Airport:

Trip Planner

Search our weather history database for the weather conditions in past years. The results will help you decide how hot, cold, wet, or windy it might be!

Date:

Astronomy

May. 10, 2013 Rise Set
Actual Time 6:03 AM CDT 8:07 PM CDT
Civil Twilight 5:34 AM CDT 8:36 PM CDT
Nautical Twilight 4:58 AM CDT 9:11 PM CDT
Astronomical Twilight 4:20 AM CDT 9:50 PM CDT
Moon 6:27 AM CDT (5/10) 8:56 PM CDT (5/10)
Length of Visible Light 15h 02m
Length of Day
14h 04m
New Moon, 0% of the Moon is Illuminated
May 10
New Moon
May 17
First Quarter
May 24
Full
May 31
Last Quarter
Jun 8
New

Hourly Weather History & Observations

Time (CDT) Temp. Dew Point Humidity Pressure Visibility Wind Dir Wind Speed Gust Speed Precip Events Conditions
12:31 AM 59.0 °F 59.0 °F 100% 29.89 in 10.0 mi North 9.2 mph - N/A   Scattered Clouds
12:37 AM 59.0 °F 59.0 °F 100% 29.88 in 10.0 mi North 8.1 mph - N/A Rain Light Rain
12:52 AM 59.0 °F 59.0 °F 100% 29.93 in 10.0 mi Variable 4.6 mph - N/A   Mostly Cloudy
12:58 AM 58.6 °F 58.6 °F 100% 29.91 in 10.0 mi West 4.6 mph - 0.01 in   Mostly Cloudy
1:58 AM 58.5 °F 58.5 °F 100% 29.89 in 10.0 mi South 2.3 mph - N/A   Partly Cloudy
2:58 AM 58.1 °F 58.1 °F 100% 29.88 in 10.0 mi South 3.5 mph - N/A   Partly Cloudy
3:58 AM 57.6 °F 57.6 °F 100% 29.90 in 10.0 mi WSW 2.3 mph - N/A   Scattered Clouds
4:33 AM 57.2 °F 57.2 °F 100% 29.90 in 10.0 mi ESE 3.5 mph - N/A   Mostly Cloudy
4:58 AM 58.1 °F 58.1 °F 100% 29.89 in 10.0 mi SE 3.5 mph - N/A   Overcast
5:18 AM 59.0 °F 59.0 °F 100% 29.91 in 10.0 mi SE 3.5 mph - N/A   Overcast
5:58 AM 57.7 °F 57.7 °F 100% 29.89 in 10.0 mi SSE 4.6 mph - N/A   Overcast
6:33 AM 57.2 °F 57.2 °F 100% 29.91 in 10.0 mi South 2.3 mph - N/A   Overcast
6:58 AM 58.1 °F 58.1 °F 100% 29.90 in 10.0 mi Variable 1.2 mph - N/A   Overcast
7:58 AM 58.8 °F 58.8 °F 100% 29.91 in 10.0 mi Variable 1.2 mph - N/A   Overcast
8:03 AM 59.0 °F 59.0 °F 100% 29.93 in 10.0 mi Calm Calm - N/A   Overcast
8:13 AM 59.0 °F 59.0 °F 100% 29.93 in 10.0 mi West 2.3 mph - N/A   Overcast
8:18 AM 59.0 °F 59.0 °F 100% 29.93 in 10.0 mi WSW 3.5 mph - N/A   Overcast
8:28 AM 60.8 °F 60.8 °F 100% 29.94 in 10.0 mi West 2.3 mph - N/A   Overcast
8:58 AM 60.3 °F 60.3 °F 100% 29.94 in 10.0 mi Variable 3.5 mph - N/A   Overcast
9:48 AM 60.8 °F 60.8 °F 100% 29.95 in 10.0 mi WNW 6.9 mph - N/A   Overcast
9:53 AM 60.8 °F 60.8 °F 100% 29.95 in 10.0 mi WNW 6.9 mph - N/A   Overcast
9:58 AM 60.8 °F 60.8 °F 100% 29.94 in 10.0 mi NW 6.9 mph - N/A   Overcast
10:48 AM 62.6 °F 59.0 °F 88% 29.95 in 10.0 mi Variable 4.6 mph - N/A   Overcast
10:58 AM 63.3 °F 59.4 °F 87% 29.96 in 10.0 mi WNW 6.9 mph - N/A   Overcast
11:43 AM 64.4 °F 59.0 °F 83% 29.95 in 10.0 mi NW 6.9 mph - N/A   Mostly Cloudy
11:58 AM 64.6 °F 58.3 °F 80% 29.95 in 10.0 mi Variable 3.5 mph - N/A   Overcast
12:08 PM 66.2 °F 59.0 °F 78% 29.95 in 10.0 mi NNW 9.2 mph - N/A   Overcast
12:53 PM 66.2 °F 57.2 °F 73% 29.95 in 10.0 mi NW 10.4 mph - N/A   Overcast
12:58 PM 66.2 °F 57.4 °F 73% 29.95 in 10.0 mi WNW 9.2 mph - N/A   Overcast
1:58 PM 68.4 °F 55.0 °F 62% 29.96 in 10.0 mi WNW 9.2 mph - N/A   Mostly Cloudy
2:58 PM 66.0 °F 55.4 °F 69% 29.94 in 10.0 mi NW 10.4 mph - N/A   Overcast
3:58 PM 65.1 °F 56.5 °F 74% 29.94 in 10.0 mi NW 11.5 mph - N/A   Overcast
4:54 PM 62.6 °F 55.4 °F 77% 29.97 in 10.0 mi NNW 11.5 mph - N/A   Overcast
4:58 PM 63.1 °F 56.1 °F 78% 29.97 in 10.0 mi NW 9.2 mph - N/A   Overcast
5:23 PM 60.8 °F 57.2 °F 88% 29.99 in 10.0 mi NW 9.2 mph - N/A   Overcast
5:58 PM 59.7 °F 55.9 °F 87% 29.98 in 10.0 mi NW 10.4 mph - N/A   Overcast
6:23 PM 59.0 °F 55.4 °F 88% 29.98 in 10.0 mi NW 10.4 mph - N/A   Overcast
6:53 PM 57.2 °F 55.4 °F 94% 29.98 in 10.0 mi NW 9.2 mph - N/A   Overcast
6:58 PM 58.1 °F 55.2 °F 90% 29.98 in 10.0 mi NNW 8.1 mph - N/A   Overcast
7:48 PM 57.2 °F 55.4 °F 94% 30.00 in 10.0 mi NW 5.8 mph - N/A   Overcast
7:58 PM 57.2 °F 54.7 °F 91% 30.00 in 10.0 mi NW 8.1 mph - N/A   Overcast
8:13 PM 57.2 °F 53.6 °F 88% 30.00 in 10.0 mi NW 5.8 mph - N/A   Overcast
8:58 PM 56.7 °F 54.7 °F 93% 30.01 in 10.0 mi Variable 3.5 mph - N/A   Overcast
9:23 PM 57.2 °F 55.4 °F 94% 30.02 in 10.0 mi WNW 3.5 mph - N/A   Overcast
9:58 PM 56.3 °F 54.5 °F 94% 30.03 in 10.0 mi Variable 3.5 mph - N/A   Overcast
10:58 PM 55.4 °F 54.7 °F 97% 30.02 in 10.0 mi WNW 2.3 mph - N/A   Overcast
11:58 PM 53.4 °F 53.4 °F 100% 30.02 in 10.0 mi WNW 1.2 mph - N/A   Scattered Clouds